SCP
0 0 0 0 0 0 0 0 0 0 0 0 0 0 0 0 0 0 0 0 0 0 0 0 0 0 0 0 0 0 0 0 0 0 0 0 0 0 0 0 0 0 0 0
0 0 0 0 0 0 0 0 0 0 0 0 0 0 0 0 0 0 0 0 0 0 0 0 0 0 0 0 0 0 0 0 0 0 0 0 0 0 0 0 0 0 0 0
0 0 0 0 0 0 0 0 0 0 0 0 0 0 0 0 0 0 0 0 0 0 0 0 0 0 0 0 0 0 0 0 0 0 0 0 0 0 0 0 0 0 0 0
0 0 0 0 0 0 0 0 0 0 0 0 0 0 0 0 0 0 0 0 0 0 0 0 0 0 0 0 0 0 0 0 0 0 0 0 0 0 0 0 0 0 0 0
0 0 0 0 0 0 0 0 0 0 0 0 0 0 0 0 0 0 0 0 0 0 0 0 0 0 0 0 0 0 0 0 0 0 0 0 0 0 0 0 0 0 0 0
0 0 0 0 0 0 0 0 0 0 0 0 0 0 -0 0 0 0 0 0 0 0 0 0 0 0 0 0 0 0 0 0 0 0 0 0 0 0 0 0 0 0 0 0
0 0 0 0 0 0 0 0 0 0 0 0 0 0 0 0 0 0 0 0 0 0 0 0 0 0 0 0 0 0 0 0 0 0 0 0 0 0 0 0 0 0 0 0
0 0 0 0 0 0 0 0 0 0 0 0 0 0 0 0 0 0 0 0 0 0 0 0 0 0 0 0 0 0 0 0 0 0 0 0 0 0 0 0 0 0 0 0
0 0 0 0 0 0 0 0 0 0 0 0 0 0 0 0 0 0 0 0 0 0 0 0 0 0 0 0 0 0 0 0 0 0 0 0 0 0 0 0 0 0 0 0
0 0 0 0 0 0 0 0 0 0 0 0 0 0 0 0 0 0 0 0 0 0 0 0 0 0 0 0 0 0 0 0 0 0 0 0 0 0 0 0 0 0 0 0
0 0 0 0 0 0 0 0 0 0 0 0 0 0 0 0 0 0 0 0 0 0 0 0 0 0 0 0 0 0 0 0 0 0 0 0 0 0 0 0 0 0 0 0
0 0 0 0 0 0 0 0 0 0 0 0 0 0 0 0 0 0 0 0 0 0 0 0 0 0 0 0 0 0 0 0 0 0 0 0 0 0 0 0 0 0 0 0
0 0 0 0 0 0 0 0 0 0 0 0 0 0 0 0 0 0 0 0 0 0 0 0 0 0 0 0 0 0 0 0 0 0 0 0 0 0 0 0 0 0 0 0
0 0 0 0 0 0 0 0 0 0 0 0 0 0 0 0 0 0 0 0 0 0 0 0 0 0 0 0 0 0 0 0 0 0 0 0 0 0 0 0 0 0 0 0
0 0 0 0 0 0 0 0 0 0 0 0 0 0 0 0 0 0 0 0 0 0 0 0 0 0 0 0 0 0 0 0 0 0 0 0 0 0 0 0 0 0 0 0
0 0 0 0 0 0 0 0 0 0 0 0 0 0 0 0 0 0 0 0 0 0 0 0 0 0 0 0 0 0 0 0 0 0 0 0 0 0 0 0 0 0 0 0
0 0 0 0 0 0 0 0 0 0 0 0 0 0 0 0 0 0 0 0 0 0 0 0 0 0 0 0 0 0 0 0 0 0 0 0 0 0 0 0 0 0 0 0
0 0 0 0 0 0 0 0 0 0 0 0 0 0 0 0 0 0 0 0 0 0 0 0 0 0 0 0 0 0 0 0 0 0 0 0 0 0 0 0 0 0 0 0
0 0 0 0 0 0 0 0 0 0 0 0 0 0 0 0 0 0 0 0 0 0 0 0 0 0 0 0 0 0 0 0 0 0 0 0 0 0 0 0 0 0 0 0
0 0 0 0 0 0 0 0 0 0 0 0 0 0 0 0 0 0 0 0 0 0 0 0 0 0 0 0 0 0 0 0 0 0 0 0 0 0 0 0 0 0 0 0
0 0 0 0 0 0 0 0 0 0 0 0 0 0 0 0 0 0 0 0 0 0 0 0 0 0 0 0 0 0 0 0 0 0 0 0 0 0 0 0 0 0 0 0
0 0 0 0 0 0 0 0 0 0 0 0 0 0 0 0 0 0 0 0 0 0 0 0 0 0 0 0 0 0 0 0 0 0 0 0 0 0 0 0 0 0 0 0
0 0 0 0 0 0 0 0 0 0 0 0 0 0 0 0 0 0 0 0 0 0 0 0 0 0 0 0 0 0 0 0 0 0 0 0 0 0 0 0 0 0 0 0
0 0 0 0 0 0 0 0 0 0 0 0 0 0 0 0 0 0 0 0 0 0 0 0 0 0 0 0 0 0 0 0 0 0 0 0 0 0 0 0 0 0 0 0
0 0 0 0 0 0 0 0 0 0 0 0 0 0 0 0 0 0 0 0 0 0 0 0 0 0 0 0 0 0 0 0 0 0 0 0 0 0 0 0 0 0 0 0
0 0 0 0 0 0 0 0 0 0 0 0 0 0 0 0 0 0 0 0 0 0 0 0 0 0 0 0 0 0 0 0 0 0 0 0 0 0 0 0 0 0 0 0
Wind_Speed_500mb
22 10 21 33 24 24 18 21 18 16 11 12 20 24 22 45 43 41 46 46 38 32 30 20 17 15 15 17 22 30 39 51 53 55 49 46 37 36 24 25 22 20 18 19
6 23 29 18 19 21 22 23 26 15 8 10 14 22 19 27 45 61 57 49 44 40 27 22 20 20 23 25 30 39 52 58 60 56 51 45 42 31 33 34 34 34 33 31
29 7 32 25 21 12 19 21 19 17 16 12 7 22 27 25 44 48 44 47 47 48 35 29 27 28 30 33 37 50 58 58 58 52 48 44 43 41 44 45 45 40 33 29
26 33 24 13 27 16 21 16 21 16 8 11 16 20 9 16 24 22 38 34 41 40 37 35 35 38 39 44 49 52 55 51 44 39 45 46 47 57 51 45 40 36 29 24
11 13 14 28 19 18 10 9 5 8 12 16 16 16 7 16 23 31 36 47 43 46 45 45 43 47 47 51 55 55 50 47 45 46 45 51 55 52 47 41 34 29 24 21
21 6 4 7 4 5 15 9 7 4 1 18 17 20 38 24 27 12 34 51 53 52 48 46 50 52 54 54 53 50 50 48 46 47 50 48 47 46 42 36 29 26 22 19
22 27 10 9 8 5 12 13 4 6 7 17 2 21 33 6 7 14 41 57 61 59 56 60 59 59 58 57 56 56 56 58 57 56 53 48 43 39 34 30 24 21 17 15
16 10 41 25 30 22 20 19 10 11 10 8 3 15 11 6 14 21 57 63 65 64 64 64 63 64 65 64 64 66 66 64 59 55 50 44 39 35 31 26 21 16 13 13
11 16 8 20 18 23 12 19 4 8 1 4 10 13 5 8 5 25 44 59 65 69 67 66 64 68 71 70 69 69 66 62 57 52 48 44 37 31 26 21 16 12 12 15
2 9 8 6 8 11 9 16 6 5 10 11 13 19 18 13 18 19 33 54 63 67 67 69 70 73 73 71 70 66 61 60 58 53 46 41 35 29 23 18 14 12 12 14
5 6 4 7 14 22 11 13 11 13 9 8 6 12 9 21 31 39 37 58 65 69 72 77 76 74 76 74 72 67 65 62 57 52 47 40 34 28 22 16 11 9 8 8
17 7 12 15 5 16 30 22 29 11 12 12 5 16 8 10 20 38 50 60 64 68 71 77 79 80 80 77 73 70 66 61 57 52 46 39 32 26 21 15 10 5 3 8
15 9 5 4 6 2 13 31 44 35 7 28 11 16 3 7 15 36 46 60 67 72 74 81 85 87 86 80 76 71 67 63 58 53 47 41 34 27 20 15 8 2 6 9
36 11 14 23 3 7 11 21 37 37 20 24 35 14 8 10 14 26 47 61 67 74 79 81 87 91 88 86 82 78 72 68 64 57 49 42 36 29 22 14 8 5 8 10
24 16 18 35 29 10 8 12 28 39 53 25 50 38 28 22 24 44 52 59 64 68 75 85 90 94 92 90 87 81 77 74 69 62 55 45 38 30 23 17 9 6 9 12
4 11 20 34 37 35 31 25 23 43 51 49 50 47 4 16 31 40 51 61 66 73 81 84 86 93 97 97 95 88 83 79 73 65 57 49 41 33 26 19 11 7 12 16
9 5 7 23 9 16 11 48 42 38 34 40 44 62 7 10 13 26 39 54 67 74 81 86 95 100 102 103 100 95 90 82 76 69 60 52 44 36 29 22 13 11 15 17
14 11 4 1 5 10 10 5 24 45 50 42 35 4 4 11 43 36 44 63 62 64 68 73 80 85 92 95 95 93 94 84 78 73 67 57 48 41 34 25 20 16 16 20
4 8 8 8 9 12 10 10 13 16 21 28 13 13 12 20 8 13 31 31 43 46 51 60 67 82 91 93 93 97 97 84 80 76 66 57 52 48 39 32 25 21 19 25
2 8 9 7 8 13 7 8 4 6 10 15 25 24 23 26 7 28 48 48 53 48 48 58 68 80 83 88 94 101 95 88 84 74 59 57 58 51 42 36 31 23 25 32
8 6 21 12 9 8 9 12 4 8 11 7 38 32 33 17 14 16 28 32 35 40 42 44 55 72 82 86 94 95 91 93 81 60 64 63 62 52 45 41 32 28 33 38
18 15 9 7 10 14 17 11 17 7 5 6 7 18 35 32 17 18 21 23 26 29 33 39 51 67 76 79 81 85 89 81 67 62 69 66 59 54 51 41 35 37 42 44
5 9 8 14 8 3 33 1 21 5 6 6 10 12 20 26 22 19 21 22 23 25 29 32 40 54 63 65 66 73 79 78 68 65 63 62 59 56 50 43 42 45 48 49
6 4 2 5 2 6 11 27 19 18 10 9 9 8 12 14 19 21 22 24 26 27 28 30 35 41 46 52 57 61 65 59 58 59 60 60 59 55 51 50 51 52 51 50
6 11 9 5 11 10 22 34 38 27 21 12 12 12 13 15 19 24 30 31 28 25 24 25 25 29 35 41 46 49 50 51 53 54 55 57 57 57 57 57 57 55 51 51
12 11 9 9 16 8 9 14 35 40 29 23 19 18 17 19 25 32 32 24 22 25 27 28 27 28 33 39 44 48 51 51 50 51 55 58 60 61 62 62 59 57 53 53
Wind_Direction_500mb
193 206 211 220 211 244 286 302 286 290 135 163 225 238 239 196 210 214 215 199 198 199 221 221 221 210 204 181 174 173 174 171 171 166 160 159 158 154 165 160 146 159 146 131
101 233 240 234 238 228 238 254 264 275 186 167 254 263 265 193 206 210 210 197 192 190 206 203 202 189 179 181 177 174 171 164 158 157 164 163 154 163 156 144 137 130 123 113
216 190 217 225 238 221 250 240 251 244 284 202 281 263 245 253 221 212 211 205 198 196 193 192 188 178 180 179 176 171 165 161 160 160 159 157 152 152 143 135 127 117 113 108
238 235 252 217 232 182 249 228 242 263 284 252 177 284 228 253 229 179 187 185 177 176 193 188 185 180 175 169 167 167 161 160 160 160 157 160 158 147 135 130 123 119 109 99
218 188 222 219 213 191 222 52 358 198 246 285 249 281 251 204 234 212 188 184 183 182 188 181 181 183 175 169 167 168 164 159 158 166 164 157 148 140 134 128 125 118 107 92
262 123 285 225 148 247 122 85 67 32 248 254 190 216 275 228 217 190 172 177 180 178 183 177 182 181 178 177 175 173 171 170 173 165 156 155 150 144 139 132 127 113 98 80
235 229 168 160 106 34 158 134 223 258 205 249 113 219 245 285 158 175 169 171 177 178 176 178 181 177 176 175 173 170 168 162 159 157 155 154 151 146 141 134 124 112 94 71
207 250 200 176 204 193 189 183 175 224 211 270 45 240 248 35 59 157 165 166 170 174 178 184 181 176 175 173 168 164 163 160 161 161 158 155 151 148 141 132 124 112 87 56
203 247 87 156 194 195 179 222 225 66 45 311 225 261 307 144 103 134 153 164 168 172 180 183 179 177 173 169 167 168 168 166 164 164 161 158 155 149 143 137 126 100 70 47
10 308 22 72 96 273 220 155 137 154 212 231 256 238 231 216 192 175 172 175 174 173 181 182 181 179 175 172 174 174 174 173 170 168 166 162 159 158 153 142 122 91 59 38
179 193 110 81 208 179 159 199 191 169 214 203 288 257 338 196 183 185 182 181 179 177 179 184 183 181 179 180 181 179 180 177 173 172 171 170 166 162 154 141 117 91 57 7
195 210 233 210 358 229 214 206 202 183 208 227 186 257 9 45 169 174 176 180 180 181 182 186 186 185 186 187 185 184 183 181 180 177 174 173 170 166 157 148 141 124 341 329
154 199 213 253 326 219 210 217 210 232 43 228 171 258 9 39 129 170 172 179 180 181 183 188 191 192 192 191 190 189 187 185 183 182 180 176 174 170 167 164 170 242 312 321
162 177 202 236 132 116 194 208 215 210 223 231 226 237 223 186 173 171 178 179 181 183 186 191 195 197 197 196 194 193 191 191 189 187 185 183 180 175 179 184 210 276 321 332
181 217 205 243 252 150 220 217 222 219 232 215 247 240 241 196 189 195 182 175 178 186 189 194 198 201 201 200 199 199 197 194 194 190 189 186 184 185 192 202 230 301 324 330
225 231 195 246 246 250 243 228 225 230 234 240 254 260 54 261 186 160 178 176 184 189 194 197 201 205 206 206 204 201 200 198 197 195 192 190 190 195 202 211 227 306 319 314
172 199 189 248 225 228 257 229 224 226 231 227 236 246 139 123 139 182 185 187 192 194 199 201 208 211 211 211 208 204 205 201 198 197 197 197 199 204 209 219 242 277 299 301
168 191 203 304 98 230 242 183 222 228 236 231 241 221 138 192 202 198 211 207 205 208 208 209 210 212 216 213 210 207 209 204 202 200 203 202 205 211 215 224 241 265 281 299
206 188 191 199 211 327 277 216 186 177 255 229 196 148 131 115 108 225 195 211 226 231 232 230 228 222 215 210 206 206 208 207 204 205 205 210 217 217 221 229 244 250 278 291
253 293 221 157 204 213 247 275 253 89 293 223 173 167 171 168 219 242 243 255 258 243 240 235 225 215 212 207 207 209 210 210 208 206 215 221 223 221 228 236 239 252 277 284
157 195 227 218 221 257 228 179 164 128 251 260 206 187 174 187 215 213 197 209 219 227 230 223 221 216 212 209 210 211 214 212 208 210 219 223 220 225 233 234 241 258 273 277
173 172 190 200 222 242 150 97 170 212 286 254 199 196 188 193 179 170 176 191 201 203 204 208 206 206 209 213 214 214 215 211 210 221 221 217 222 227 232 235 245 260 269 272
230 192 184 186 210 222 187 347 221 253 244 188 133 170 185 187 194 193 196 197 194 192 190 194 201 205 210 214 218 216 212 211 223 216 217 221 224 229 232 240 250 260 267 270
249 185 163 55 308 233 230 221 224 231 221 196 168 181 198 208 206 200 191 182 180 181 184 188 193 201 207 210 214 216 219 220 213 216 220 224 228 232 237 243 251 260 265 270
176 143 155 268 250 269 252 232 223 230 234 239 237 253 261 249 219 196 174 166 169 174 182 188 197 204 207 209 208 206 204 208 213 219 225 230 234 239 241 246 252 260 266 271
185 167 168 218 212 187 229 243 222 228 239 244 263 271 260 232 209 190 174 177 186 198 199 203 207 214 217 215 213 208 207 213 220 227 231 235 239 242 244 248 254 261 267 270
Wind_Speed_850mb
22 10 21 33 24 24 18 21 18 16 11 12 20 24 22 45 43 41 46 46 38 32 30 20 17 15 15 17 22 30 39 51 53 55 49 46 37 36 24 25 22 20 18 19
6 23 29 18 19 21 22 23 26 15 8 10 14 22 19 27 45 61 57 49 44 40 27 22 20 20 23 25 30 39 52 58 60 56 51 45 42 31 33 34 34 34 33 31
29 7 32 25 21 12 19 21 19 17 16 12 7 22 27 25 44 48 44 47 47 48 35 29 27 28 30 33 37 50 58 58 58 52 48 44 43 41 44 45 45 40 33 29
26 33 24 13 27 16 21 16 21 16 8 11 16 20 9 16 24 22 38 34 41 40 37 35 35 38 39 44 49 52 55 51 44 39 45 46 47 57 51 45 40 36 29 24
11 13 14 28 19 18 10 9 5 8 12 16 16 16 7 16 23 31 36 47 43 46 45 45 43 47 47 51 55 55 50 47 45 46 45 51 55 52 47 41 34 29 24 21
21 6 4 7 4 5 15 9 7 4 1 18 17 20 38 24 27 12 34 51 53 52 48 46 50 52 54 54 53 50 50 48 46 47 50 48 47 46 42 36 29 26 22 19
22 27 10 9 8 5 12 13 4 6 7 17 2 21 33 6 7 14 41 57 61 59 56 60 59 59 58 57 56 56 56 58 57 56 53 48 43 39 34 30 24 21 17 15
16 10 41 25 30 22 20 19 10 11 10 8 3 15 11 6 14 21 57 63 65 64 64 64 63 64 65 64 64 66 66 64 59 55 50 44 39 35 31 26 21 16 13 13
11 16 8 20 18 23 12 19 4 8 1 4 10 13 5 8 5 25 44 59 65 69 67 66 64 68 71 70 69 69 66 62 57 52 48 44 37 31 26 21 16 12 12 15
2 9 8 6 8 11 9 16 6 5 10 11 13 19 18 13 18 19 33 54 63 67 67 69 70 73 73 71 70 66 61 60 58 53 46 41 35 29 23 18 14 12 12 14
5 6 4 7 14 22 11 13 11 13 9 8 6 12 9 21 31 39 37 58 65 69 72 77 76 74 76 74 72 67 65 62 57 52 47 40 34 28 22 16 11 9 8 8
17 7 12 15 5 16 30 22 29 11 12 12 5 16 8 10 20 38 50 60 64 68 71 77 79 80 80 77 73 70 66 61 57 52 46 39 32 26 21 15 10 5 3 8
15 9 5 4 6 2 13 31 44 35 7 28 11 16 3 7 15 36 46 60 67 72 74 81 85 87 86 80 76 71 67 63 58 53 47 41 34 27 20 15 8 2 6 9
36 11 14 23 3 7 11 21 37 37 20 24 35 14 8 10 14 26 47 61 67 74 79 81 87 91 88 86 82 78 72 68 64 57 49 42 36 29 22 14 8 5 8 10
24 16 18 35 29 10 8 12 28 39 53 25 50 38 28 22 24 44 52 59 64 68 75 85 90 94 92 90 87 81 77 74 69 62 55 45 38 30 23 17 9 6 9 12
4 11 20 34 37 35 31 25 23 43 51 49 50 47 4 16 31 40 51 61 66 73 81 84 86 93 97 97 95 88 83 79 73 65 57 49 41 33 26 19 11 7 12 16
9 5 7 23 9 16 11 48 42 38 34 40 44 62 7 10 13 26 39 54 67 74 81 86 95 100 102 103 100 95 90 82 76 69 60 52 44 36 29 22 13 11 15 17
14 11 4 1 5 10 10 5 24 45 50 42 35 4 4 11 43 36 44 63 62 64 68 73 80 85 92 95 95 93 94 84 78 73 67 57 48 41 34 25 20 16 16 20
4 8 8 8 9 12 10 10 13 16 21 28 13 13 12 20 8 13 31 31 43 46 51 60 67 82 91 93 93 97 97 84 80 76 66 57 52 48 39 32 25 21 19 25
2 8 9 7 8 13 7 8 4 6 10 15 25 24 23 26 7 28 48 48 53 48 48 58 68 80 83 88 94 101 95 88 84 74 59 57 58 51 42 36 31 23 25 32
8 6 21 12 9 8 9 12 4 8 11 7 38 32 33 17 14 16 28 32 35 40 42 44 55 72 82 86 94 95 91 93 81 60 64 63 62 52 45 41 32 28 33 38
18 15 9 7 10 14 17 11 17 7 5 6 7 18 35 32 17 18 21 23 26 29 33 39 51 67 76 79 81 85 89 81 67 62 69 66 59 54 51 41 35 37 42 44
5 9 8 14 8 3 33 1 21 5 6 6 10 12 20 26 22 19 21 22 23 25 29 32 40 54 63 65 66 73 79 78 68 65 63 62 59 56 50 43 42 45 48 49
6 4 2 5 2 6 11 27 19 18 10 9 9 8 12 14 19 21 22 24 26 27 28 30 35 41 46 52 57 61 65 59 58 59 60 60 59 55 51 50 51 52 51 50
6 11 9 5 11 10 22 34 38 27 21 12 12 12 13 15 19 24 30 31 28 25 24 25 25 29 35 41 46 49 50 51 53 54 55 57 57 57 57 57 57 55 51 51
12 11 9 9 16 8 9 14 35 40 29 23 19 18 17 19 25 32 32 24 22 25 27 28 27 28 33 39 44 48 51 51 50 51 55 58 60 61 62 62 59 57 53 53
Wind_Direction_850mb
193 206 211 220 211 244 286 302 286 290 135 163 225 238 239 196 210 214 215 199 198 199 221 221 221 210 204 181 174 173 174 171 171 166 160 159 158 154 165 160 146 159 146 131
101 233 240 234 238 228 238 254 264 275 186 167 254 263 265 193 206 210 210 197 192 190 206 203 202 189 179 181 177 174 171 164 158 157 164 163 154 163 156 144 137 130 123 113
216 190 217 225 238 221 250 240 251 244 284 202 281 263 245 253 221 212 211 205 198 196 193 192 188 178 180 179 176 171 165 161 160 160 159 157 152 152 143 135 127 117 113 108
238 235 252 217 232 182 249 228 242 263 284 252 177 284 228 253 229 179 187 185 177 176 193 188 185 180 175 169 167 167 161 160 160 160 157 160 158 147 135 130 123 119 109 99
218 188 222 219 213 191 222 52 358 198 246 285 249 281 251 204 234 212 188 184 183 182 188 181 181 183 175 169 167 168 164 159 158 166 164 157 148 140 134 128 125 118 107 92
262 123 285 225 148 247 122 85 67 32 248 254 190 216 275 228 217 190 172 177 180 178 183 177 182 181 178 177 175 173 171 170 173 165 156 155 150 144 139 132 127 113 98 80
235 229 168 160 106 34 158 134 223 258 205 249 113 219 245 285 158 175 169 171 177 178 176 178 181 177 176 175 173 170 168 162 159 157 155 154 151 146 141 134 124 112 94 71
207 250 200 176 204 193 189 183 175 224 211 270 45 240 248 35 59 157 165 166 170 174 178 184 181 176 175 173 168 164 163 160 161 161 158 155 151 148 141 132 124 112 87 56
203 247 87 156 194 195 179 222 225 66 45 311 225 261 307 144 103 134 153 164 168 172 180 183 179 177 173 169 167 168 168 166 164 164 161 158 155 149 143 137 126 100 70 47
10 308 22 72 96 273 220 155 137 154 212 231 256 238 231 216 192 175 172 175 174 173 181 182 181 179 175 172 174 174 174 173 170 168 166 162 159 158 153 142 122 91 59 38
179 193 110 81 208 179 159 199 191 169 214 203 288 257 338 196 183 185 182 181 179 177 179 184 183 181 179 180 181 179 180 177 173 172 171 170 166 162 154 141 117 91 57 7
195 210 233 210 358 229 214 206 202 183 208 227 186 257 9 45 169 174 176 180 180 181 182 186 186 185 186 187 185 184 183 181 180 177 174 173 170 166 157 148 141 124 341 329
154 199 213 253 326 219 210 217 210 232 43 228 171 258 9 39 129 170 172 179 180 181 183 188 191 192 192 191 190 189 187 185 183 182 180 176 174 170 167 164 170 242 312 321
162 177 202 236 132 116 194 208 215 210 223 231 226 237 223 186 173 171 178 179 181 183 186 191 195 197 197 196 194 193 191 191 189 187 185 183 180 175 179 184 210 276 321 332
181 217 205 243 252 150 220 217 222 219 232 215 247 240 241 196 189 195 182 175 178 186 189 194 198 201 201 200 199 199 197 194 194 190 189 186 184 185 192 202 230 301 324 330
225 231 195 246 246 250 243 228 225 230 234 240 254 260 54 261 186 160 178 176 184 189 194 197 201 205 206 206 204 201 200 198 197 195 192 190 190 195 202 211 227 306 319 314
172 199 189 248 225 228 257 229 224 226 231 227 236 246 139 123 139 182 185 187 192 194 199 201 208 211 211 211 208 204 205 201 198 197 197 197 199 204 209 219 242 277 299 301
168 191 203 304 98 230 242 183 222 228 236 231 241 221 138 192 202 198 211 207 205 208 208 209 210 212 216 213 210 207 209 204 202 200 203 202 205 211 215 224 241 265 281 299
206 188 191 199 211 327 277 216 186 177 255 229 196 148 131 115 108 225 195 211 226 231 232 230 228 222 215 210 206 206 208 207 204 205 205 210 217 217 221 229 244 250 278 291
253 293 221 157 204 213 247 275 253 89 293 223 173 167 171 168 219 242 243 255 258 243 240 235 225 215 212 207 207 209 210 210 208 206 215 221 223 221 228 236 239 252 277 284
157 195 227 218 221 257 228 179 164 128 251 260 206 187 174 187 215 213 197 209 219 227 230 223 221 216 212 209 210 211 214 212 208 210 219 223 220 225 233 234 241 258 273 277
173 172 190 200 222 242 150 97 170 212 286 254 199 196 188 193 179 170 176 191 201 203 204 208 206 206 209 213 214 214 215 211 210 221 221 217 222 227 232 235 245 260 269 272
230 192 184 186 210 222 187 347 221 253 244 188 133 170 185 187 194 193 196 197 194 192 190 194 201 205 210 214 218 216 212 211 223 216 217 221 224 229 232 240 250 260 267 270
249 185 163 55 308 233 230 221 224 231 221 196 168 181 198 208 206 200 191 182 180 181 184 188 193 201 207 210 214 216 219 220 213 216 220 224 228 232 237 243 251 260 265 270
176 143 155 268 250 269 252 232 223 230 234 239 237 253 261 249 219 196 174 166 169 174 182 188 197 204 207 209 208 206 204 208 213 219 225 230 234 239 241 246 252 260 266 271
185 167 168 218 212 187 229 243 222 228 239 244 263 271 260 232 209 190 174 177 186 198 199 203 207 214 217 215 213 208 207 213 220 227 231 235 239 242 244 248 254 261 267 270